Flag Weather past 2 weeks in Pond Inlet, Nunavut Territory, Canada

Now
10 °F

Partly cloudy.


Feels Like: -3 °F
Forecast: 5 / 13 °F
Wind: 10 mph from Southeast

Location: Pond Inlet

Current Time: Oct 31, 2014 at 3:23:53 PM

Latest Report: Oct 31, 2014 at 3:00 PM


Visibility: 15 mi

Pressure: 30.20 "Hg

Humidity: 92%

Dew point: 9 °F

Location of Pond InletLocation

Historic Weather in Pond Inlet — Graph

°F

Pond Inlet temperature yesterday

Maximum temperature yesterday: 18 °F (at 12:00 AM)
Minimum temperature yesterday: 9 °F (at 10:00 PM)
Average temperature yesterday: 15 °F

Past Weeks' High & Low Weather Summary

 TemperatureHumidityPressure
High27 °F (Oct 16, 3:00 PM)93% (Oct 18, 3:55 PM)30.19 "Hg (Oct 18, 3:55 PM)
Low3 °F (Oct 22, 5:00 PM)60% (Oct 22, 6:00 PM)29.58 "Hg (Oct 22, 4:00 AM)
Average14 °F83%29.95 "Hg
* Reported Oct 16 2:00 PM — Oct 31 2:00 PM, Pond Inlet, Weather by CustomWeather, © 2014

Note: Actual official high and low records may vary slightly from our data, if they occured in-between our weather recording intervals... More about our weather records

Advertising

Pond Inlet weather history for previous 24 hours

 ConditionsComfort  
Time TempWeatherWind HumidityBarometerVisibility
2:00 PM
Oct 31
9 °FScattered clouds.8 mph92%30.19 "Hg25 mi
1:00 PM10 °FPartly sunny.8 mph92%30.19 "Hg25 mi
12:00 PM12 °FLight snow. Broken clouds.7 mph92%30.18 "Hg25 mi
11:00 AM12 °FLight snow. Partly sunny.3 mph92%30.18 "Hg25 mi
10:03 AM12 °FLight snow. Mostly cloudy.8 mph92%30.18 "Hg9 mi
9:02 AM14 °FLight snow. Mostly cloudy.2 mph92%30.17 "Hg9 mi
8:00 AM14 °FLight snow. Overcast.3 mph85%30.17 "Hg9 mi
7:00 AM14 °FLight snow. Overcast.6 mph85%30.16 "Hg9 mi
6:00 AM12 °FLight snow. Overcast.6 mph92%30.16 "Hg9 mi
5:45 AM14 °FLight snow. Overcast.5 mph85%30.15 "Hg9 mi
5:00 AM12 °FOvercast.6 mph85%30.15 "Hg9 mi
4:00 AM12 °FLight snow. Overcast.8 mph85%30.14 "Hg9 mi
3:00 AM12 °FOvercast.7 mph85%30.12 "Hg9 mi
2:00 AM12 °FOvercast.6 mph85%30.11 "Hg9 mi
1:00 AM12 °FOvercast.2 mph92%30.11 "Hg9 mi
12:00 AM7 °FOvercast.12 mph85%30.11 "Hg9 mi
11:00 PM
Oct 30
9 °FPassing clouds.7 mph92%30.10 "Hg9 mi
10:00 PM9 °FPassing clouds.8 mph92%30.10 "Hg9 mi
9:00 PM10 °FOvercast.8 mph92%30.09 "Hg9 mi
8:00 PM12 °FMostly cloudy.3 mph85%30.09 "Hg9 mi
7:00 PM14 °FLight snow. Overcast.5 mph92%30.08 "Hg15 mi
6:51 PM14 °FLight snow. Overcast.5 mph92%30.08 "Hg15 mi
6:00 PM14 °FOvercast.5 mph85%30.07 "Hg15 mi
5:00 PM14 °FOvercast.6 mph85%30.06 "Hg15 mi
4:00 PM12 °FOvercast.7 mph85%30.04 "Hg15 mi
3:00 PM14 °FLight snow. Low clouds.7 mph85%30.02 "Hg15 mi
Weather by CustomWeather, © 2014

See weather overviewHow to use our weather pages